Showing default

YAOGAN-43 02F, 60950

Orbit data source: Space-Track

YAOGAN-43 02F, 60950 is a payload satellite owned by PLA GAD (CN) in LEO that was launched on Tue, 03 Sep 2024 UTC via a CHANG ZHENG 4B launch vehicle from the Xichang Space Center, China (XSC). Payload-class satellites include a variety of spacecraft equipped with specific instruments for various scientific and technological missions. These include communications satellites like Starlink; space stations such as the ISS; scientific satellites like the Hubble; Earth observation satellites from companies like Planet Labs, Umbra, and HawkEye 360; GPS; miniature CubeSats for education and research; and military/defense satellites.

Loading next visibility...
Identifier
60950, 2024-156F
Orbit
LEO
Country
Flag of CNCN / PRC
Related business
Manufacturer
SAST
Mission
Operational Defense Communications
Bus & Motor
Unknown
Mass
~300 kg wet, ~300 kg dry
Launch date (UTC)
2024-09-03 (1 year ago)
Launch vehicle
CHANG ZHENG 4B
Launch site
Xichang Space Center, China (XSC)
Object type
Payload
Rocket body
Debris
Shape & HBR
Box + 2 Pan, 2.5 m
Radar Cross Section
11.063 m², Large (>1 m²)

Expand to show TLE details & history
Last TLE update: 17 hours ago

TLE from 17 hours ago
0 YAOGAN-43 02F
1 60950U 24156F   25309.97619931  .00012266  00000-0  51123-3 0  9994
2 60950  34.9886 161.7456 0002750 345.3072  14.7562 15.22907694 65391
Epoch: 2025-11-05T23:25Z
TLE epoch observation values (Epoch: 2025-11-05T23:25:43.620Z)
Latitude
-0.00002°
Longitude
124.87267°
Altitude
494.153 km
Speed
7.621 km/s
True Right ascension
10h 46m 58s
True Declination
0° 00' 00"
Sunlit
Object was in daylight at epoch
Visualization orbit readout
Latitude
Unknown
Longitude
Unknown
Altitude
Unknown
Speed
Unknown
Apparent Right ascension
Unknown
Apparent Declination
Unknown
Sunlit
N/A
Visualization observer readout
Local Sidereal Time
12:28:44
Azimuth
Unknown
Elevation
Unknown
Doppler factor
Unknown
Orbital elements
Apogee altitude
502.219 km
Perigee altitude
498.436 km
Semi-major axis
6,878.464 km
Eccentricity
0.00028
Inclination
34.9886°
RAAN
161.7456°
Arg. of periapsis
345.3072°
True anomaly
14.76423°
Mean anomaly
14.7562°
Eccentric anomaly
14.76021°
Mean motion
3.80457 °/min
Orbital period
94.62 mins
BSTAR
0.00051123
Loading maneuver chart data...
Computing Atmospheric mass density...
Loading historical data...
Loading historical data...
Loading historical data...
Loading historical data...
Loading historical data...
Loading historical data...
Loading historical data...

Documentation

Showing up to 5 results
|